Terug naar catalogus

TITAN 3C TRANSTAGE DEB

ActiefMEO
NORAD 38704·DEBRIS·🇺🇸 United States

Gelanceerd Sep 26, 1968 vanaf Cape Canaveral Space Force Station

Loading…

Volgende Passages (komende 24 uur)

TLE

VersSource: Space-Track

Epoch: Sep 14, 2026, 03:45 UTC

1 38704U 68081AE  26257.15653763  .00000014  00000-0  00000-0 0  9998
2 38704   4.3360  63.0550 0205136 219.7045 139.0598  1.02193344 76919

Volg TITAN 3C TRANSTAGE DEB in realtime met AllMySat

Download on the App Store